Time,TemperatureF,DewpointF,PressureIn,WindDirection,WindDirectionDegrees,WindSpeedMPH,WindSpeedGustMPH,Humidity,HourlyPrecipIn,Conditions,Clouds,dailyrainin,SoftwareType,DateUTC
2013-06-24 00:02:00,70.0,67.0,30.18,NNE,30,0.0,-999.0,91,-99.99,,,-99.99,,2013-06-24 04:02:00,
2013-06-24 00:12:00,70.0,68.0,30.17,NNE,30,0.0,-999.0,92,-99.99,,,-99.99,,2013-06-24 04:12:00,
2013-06-24 00:22:00,70.0,68.0,30.17,NNE,30,0.0,-999.0,92,-99.99,,,-99.99,,2013-06-24 04:22:00,
2013-06-24 00:33:00,70.0,68.0,30.17,NNE,29,0.0,-999.0,93,-99.99,,,-99.99,,2013-06-24 04:33:00,
2013-06-24 00:43:00,69.0,67.0,30.17,NNE,30,0.0,-999.0,93,-99.99,,,-99.99,,2013-06-24 04:43:00,
2013-06-24 00:52:00,69.0,67.0,30.17,NNE,30,0.0,-999.0,93,-99.99,,,-99.99,,2013-06-24 04:52:00,
2013-06-24 01:02:00,69.0,67.0,30.17,NNE,29,0.0,-999.0,94,-99.99,,,-99.99,,2013-06-24 05:02:00,
2013-06-24 01:12:00,69.0,67.0,30.17,NNE,29,0.0,-999.0,94,-99.99,,,-99.99,,2013-06-24 05:12:00,
2013-06-24 01:22:00,69.0,68.0,30.18,NNE,30,0.0,-999.0,95,-99.99,,,-99.99,,2013-06-24 05:22:00,
2013-06-24 01:36:00,69.0,68.0,30.18,NNE,30,0.0,-999.0,95,-99.99,,,-99.99,,2013-06-24 05:36:00,
2013-06-24 01:46:00,70.0,68.0,30.17,NNE,30,0.0,-999.0,95,-99.99,,,-99.99,,2013-06-24 05:46:00,
2013-06-24 01:53:00,70.0,68.0,30.17,NNE,29,0.0,-999.0,95,-99.99,,,-99.99,,2013-06-24 05:53:00,
2013-06-24 02:08:00,70.0,68.0,30.17,NNE,29,0.0,-999.0,95,-99.99,,,-99.99,,2013-06-24 06:08:00,
2013-06-24 02:15:00,70.0,69.0,30.16,NNE,29,0.0,-999.0,96,-99.99,,,-99.99,,2013-06-24 06:15:00,
2013-06-24 02:23:00,70.0,69.0,30.16,NNE,30,0.0,-999.0,96,-99.99,,,-99.99,,2013-06-24 06:23:00,
2013-06-24 02:37:00,70.0,69.0,30.16,NNE,30,0.0,-999.0,96,-99.99,,,-99.99,,2013-06-24 06:37:00,
2013-06-24 02:45:00,70.0,69.0,30.16,NNE,30,0.0,-999.0,96,-99.99,,,-99.99,,2013-06-24 06:45:00,
2013-06-24 03:05:00,70.0,69.0,30.16,NNE,29,0.0,-999.0,96,-99.99,,,-99.99,,2013-06-24 07:05:00,
2013-06-24 03:15:00,70.0,69.0,30.16,NNE,30,0.0,-999.0,96,-99.99,,,-99.99,,2013-06-24 07:15:00,
2013-06-24 03:30:00,69.0,68.0,30.16,NNE,29,0.0,-999.0,96,-99.99,,,-99.99,,2013-06-24 07:30:00,
2013-06-24 03:37:00,69.0,68.0,30.16,NNE,29,0.0,-999.0,96,-99.99,,,-99.99,,2013-06-24 07:37:00,
2013-06-24 03:47:00,69.0,68.0,30.16,NNE,30,0.0,-999.0,96,-99.99,,,-99.99,,2013-06-24 07:47:00,
2013-06-24 04:04:00,69.0,68.0,30.15,NNE,30,0.0,-999.0,96,-99.99,,,-99.99,,2013-06-24 08:04:00,
2013-06-24 04:14:00,69.0,68.0,30.16,NNE,30,0.0,-999.0,97,-99.99,,,-99.99,,2013-06-24 08:14:00,
2013-06-24 04:35:00,70.0,69.0,30.16,NNE,30,0.0,-999.0,97,-99.99,,,-99.99,,2013-06-24 08:35:00,
2013-06-24 04:46:00,70.0,69.0,30.16,NNE,29,0.0,-999.0,97,-99.99,,,-99.99,,2013-06-24 08:46:00,
2013-06-24 04:52:00,70.0,69.0,30.16,NNE,30,0.0,-999.0,97,-99.99,,,-99.99,,2013-06-24 08:52:00,
2013-06-24 05:06:00,70.0,69.0,30.16,NNE,30,0.0,-999.0,97,-99.99,,,-99.99,,2013-06-24 09:06:00,
2013-06-24 05:15:00,70.0,69.0,30.15,NNE,30,0.0,-999.0,97,-99.99,,,-99.99,,2013-06-24 09:15:00,
2013-06-24 05:25:00,70.0,69.0,30.16,NNE,30,0.0,-999.0,97,-99.99,,,-99.99,,2013-06-24 09:25:00,
2013-06-24 05:37:00,70.0,69.0,30.16,NNE,30,0.0,-999.0,97,-99.99,,,-99.99,,2013-06-24 09:37:00,
2013-06-24 05:47:00,69.0,68.0,30.16,NNE,30,0.0,-999.0,97,-99.99,,,-99.99,,2013-06-24 09:47:00,
2013-06-24 05:55:00,69.0,68.0,30.17,NNE,29,0.0,-999.0,97,-99.99,,,-99.99,,2013-06-24 09:55:00,
2013-06-24 06:05:00,69.0,68.0,30.17,NNE,29,0.0,-999.0,97,-99.99,,,-99.99,,2013-06-24 10:05:00,
2013-06-24 06:15:00,69.0,68.0,30.17,NNE,29,0.0,-999.0,97,-99.99,,,-99.99,,2013-06-24 10:15:00,
2013-06-24 06:24:00,69.0,68.0,30.17,NNE,30,0.0,-999.0,97,-99.99,,,-99.99,,2013-06-24 10:24:00,
2013-06-24 06:37:00,69.0,68.0,30.17,NNE,30,0.0,-999.0,97,-99.99,,,-99.99,,2013-06-24 10:37:00,
2013-06-24 06:50:00,69.0,68.0,30.17,NNE,30,0.0,-999.0,97,-99.99,,,-99.99,,2013-06-24 10:50:00,
2013-06-24 07:03:00,69.0,68.0,30.17,NNE,30,0.0,-999.0,97,-99.99,,,-99.99,,2013-06-24 11:03:00,
2013-06-24 07:15:00,69.0,68.0,30.18,NNE,30,0.0,-999.0,97,-99.99,,,-99.99,,2013-06-24 11:15:00,
2013-06-24 07:29:00,69.0,68.0,30.17,NNE,29,0.0,-999.0,97,-99.99,,,-99.99,,2013-06-24 11:29:00,
2013-06-24 07:34:00,69.0,68.0,30.17,NNE,29,0.0,-999.0,97,-99.99,,,-99.99,,2013-06-24 11:34:00,
2013-06-24 07:56:00,68.0,67.0,30.18,NNE,29,0.0,-999.0,97,-99.99,,,-99.99,,2013-06-24 11:56:00,
2013-06-24 08:05:00,68.0,67.0,30.18,NNE,29,0.0,-999.0,97,-99.99,,,-99.99,,2013-06-24 12:05:00,
2013-06-24 08:16:00,68.0,67.0,30.18,NNE,30,0.0,-999.0,97,-99.99,,,-99.99,,2013-06-24 12:16:00,
2013-06-24 08:24:00,69.0,68.0,30.19,NNE,30,0.0,-999.0,97,-99.99,,,-99.99,,2013-06-24 12:24:00,
2013-06-24 08:36:00,69.0,68.0,30.19,NNE,30,0.0,-999.0,97,-99.99,,,-99.99,,2013-06-24 12:36:00,
2013-06-24 08:48:00,69.0,68.0,30.19,NNE,29,0.0,-999.0,97,-99.99,,,-99.99,,2013-06-24 12:48:00,
2013-06-24 09:06:00,69.0,68.0,30.20,NNE,29,0.0,-999.0,98,-99.99,,,-99.99,,2013-06-24 13:06:00,
2013-06-24 09:24:00,70.0,69.0,30.20,NNE,29,0.0,-999.0,98,-99.99,,,-99.99,,2013-06-24 13:24:00,
2013-06-24 09:36:00,70.0,69.0,30.20,NNE,30,0.0,-999.0,97,-99.99,,,-99.99,,2013-06-24 13:36:00,
2013-06-24 09:44:00,71.0,70.0,30.20,ESE,102,0.0,-999.0,98,-99.99,,,-99.99,,2013-06-24 13:44:00,
2013-06-24 10:03:00,71.0,70.0,30.20,ESE,102,0.0,-999.0,97,-99.99,,,-99.99,,2013-06-24 14:03:00,
2013-06-24 10:45:00,73.0,71.0,30.22,SE,130,0.0,-999.0,92,-99.99,,,-99.99,,2013-06-24 14:45:00,
2013-06-24 10:56:00,73.0,71.0,30.22,SE,130,0.0,-999.0,92,-99.99,,,-99.99,,2013-06-24 14:56:00,
2013-06-24 11:05:00,73.0,70.0,30.21,SE,134,0.0,-999.0,91,-99.99,,,-99.99,,2013-06-24 15:05:00,
2013-06-24 11:15:00,75.0,71.0,30.21,SE,135,0.0,-999.0,88,-99.99,,,-99.99,,2013-06-24 15:15:00,
2013-06-24 11:36:00,75.0,70.0,30.21,South,171,0.0,-999.0,85,-99.99,,,-99.99,,2013-06-24 15:36:00,
2013-06-24 11:54:00,75.0,71.0,30.21,South,171,0.0,-999.0,86,-99.99,,,-99.99,,2013-06-24 15:54:00,
2013-06-24 12:04:00,75.0,70.0,30.21,South,171,0.0,-999.0,85,-99.99,,,-99.99,,2013-06-24 16:04:00,
2013-06-24 12:15:00,77.0,70.0,30.20,SSE,154,0.0,-999.0,80,-99.99,,,-99.99,,2013-06-24 16:15:00,
2013-06-24 12:24:00,77.0,70.0,30.20,SSE,154,0.0,-999.0,80,-99.99,,,-99.99,,2013-06-24 16:24:00,
2013-06-24 12:36:00,77.0,70.0,30.20,SSE,154,0.0,-999.0,80,-99.99,,,-99.99,,2013-06-24 16:36:00,
2013-06-24 12:44:00,77.0,70.0,30.20,SSE,154,0.0,-999.0,80,-99.99,,,-99.99,,2013-06-24 16:44:00,
2013-06-24 13:06:00,79.0,70.0,30.20,South,175,0.0,-999.0,75,-99.99,,,-99.99,,2013-06-24 17:06:00,
2013-06-24 13:15:00,81.0,73.0,30.19,South,175,0.0,-999.0,76,-99.99,,,-99.99,,2013-06-24 17:15:00,
2013-06-24 13:35:00,81.0,71.0,30.18,South,175,0.0,-999.0,72,-99.99,,,-99.99,,2013-06-24 17:35:00,
2013-06-24 13:47:00,81.0,72.0,30.18,South,175,0.0,-999.0,73,-99.99,,,-99.99,,2013-06-24 17:47:00,
2013-06-24 14:02:00,81.0,71.0,30.16,South,173,0.0,-999.0,71,-99.99,,,-99.99,,2013-06-24 18:02:00,
2013-06-24 14:36:00,81.0,70.0,30.15,SSE,167,0.0,-999.0,69,-99.99,,,-99.99,,2013-06-24 18:36:00,
2013-06-24 14:46:00,81.0,70.0,30.14,SSE,167,0.0,-999.0,69,-99.99,,,-99.99,,2013-06-24 18:46:00,
2013-06-24 15:13:00,82.0,72.0,30.12,SE,142,0.0,-999.0,71,-99.99,,,-99.99,,2013-06-24 19:13:00,
2013-06-24 15:37:00,82.0,71.0,30.13,South,190,0.0,-999.0,70,-99.99,,,-99.99,,2013-06-24 19:37:00,
2013-06-24 15:45:00,82.0,71.0,30.13,South,190,0.0,-999.0,70,-99.99,,,-99.99,,2013-06-24 19:45:00,
2013-06-24 16:05:00,82.0,72.0,30.12,South,189,0.0,-999.0,72,-99.99,,,-99.99,,2013-06-24 20:05:00,
2013-06-24 16:24:00,82.0,72.0,30.11,South,186,0.0,-999.0,72,-99.99,,,-99.99,,2013-06-24 20:24:00,
2013-06-24 16:34:00,81.0,70.0,30.12,South,183,0.0,-999.0,70,-99.99,,,-99.99,,2013-06-24 20:34:00,
2013-06-24 16:45:00,81.0,71.0,30.11,SSW,206,0.0,-999.0,72,-99.99,,,-99.99,,2013-06-24 20:45:00,
2013-06-24 17:04:00,80.0,72.0,30.11,SE,143,0.0,-999.0,76,-99.99,,,-99.99,,2013-06-24 21:04:00,
2013-06-24 17:25:00,80.0,72.0,30.11,SE,130,0.0,-999.0,78,-99.99,,,-99.99,,2013-06-24 21:25:00,
2013-06-24 17:46:00,80.0,72.0,30.10,South,180,0.0,-999.0,77,-99.99,,,-99.99,,2013-06-24 21:46:00,
2013-06-24 17:53:00,80.0,72.0,30.10,South,180,0.0,-999.0,77,-99.99,,,-99.99,,2013-06-24 21:53:00,
2013-06-24 18:05:00,80.0,72.0,30.10,South,180,0.0,-999.0,78,-99.99,,,-99.99,,2013-06-24 22:05:00,
2013-06-24 18:15:00,79.0,72.0,30.09,South,180,0.0,-999.0,80,-99.99,,,-99.99,,2013-06-24 22:15:00,
2013-06-24 18:24:00,79.0,72.0,30.09,South,180,0.0,-999.0,80,-99.99,,,-99.99,,2013-06-24 22:24:00,
2013-06-24 18:36:00,79.0,72.0,30.09,SE,128,0.0,-999.0,79,-99.99,,,-99.99,,2013-06-24 22:36:00,
2013-06-24 18:48:00,79.0,72.0,30.09,SSE,148,0.0,-999.0,79,-99.99,,,-99.99,,2013-06-24 22:48:00,
2013-06-24 19:05:00,79.0,73.0,30.09,SSW,200,0.0,-999.0,81,-99.99,,,-99.99,,2013-06-24 23:05:00,
2013-06-24 19:14:00,78.0,72.0,30.09,SSW,206,0.0,-999.0,81,-99.99,,,-99.99,,2013-06-24 23:14:00,
2013-06-24 19:27:00,78.0,72.0,30.09,SSW,206,0.0,-999.0,81,-99.99,,,-99.99,,2013-06-24 23:27:00,
2013-06-24 19:35:00,78.0,72.0,30.09,SSW,206,0.0,-999.0,81,-99.99,,,-99.99,,2013-06-24 23:35:00,
2013-06-24 19:45:00,78.0,71.0,30.09,SSW,206,0.0,-999.0,79,-99.99,,,-99.99,,2013-06-24 23:45:00,
2013-06-24 19:53:00,78.0,71.0,30.10,SSW,206,0.0,-999.0,80,-99.99,,,-99.99,,2013-06-24 23:53:00,
2013-06-24 20:06:00,78.0,71.0,30.10,SSW,206,0.0,-999.0,80,-99.99,,,-99.99,,2013-06-25 00:06:00,
2013-06-24 20:13:00,77.0,69.0,30.10,SSW,206,0.0,-999.0,77,-99.99,,,-99.99,,2013-06-25 00:13:00,
2013-06-24 20:24:00,77.0,69.0,30.11,SSW,206,0.0,-999.0,76,-99.99,,,-99.99,,2013-06-25 00:24:00,
2013-06-24 20:34:00,77.0,69.0,30.11,SSW,206,0.0,-999.0,76,-99.99,,,-99.99,,2013-06-25 00:34:00,
2013-06-24 20:47:00,76.0,68.0,30.12,SSW,206,0.0,-999.0,77,-99.99,,,-99.99,,2013-06-25 00:47:00,
2013-06-24 20:54:00,76.0,69.0,30.13,SSW,206,0.0,-999.0,78,-99.99,,,-99.99,,2013-06-25 00:54:00,
2013-06-24 21:04:00,76.0,69.0,30.13,SSW,206,0.0,-999.0,78,-99.99,,,-99.99,,2013-06-25 01:04:00,
2013-06-24 21:17:00,75.0,68.0,30.13,SSW,206,0.0,-999.0,80,-99.99,,,-99.99,,2013-06-25 01:17:00,
2013-06-24 21:36:00,75.0,69.0,30.13,SSW,206,0.0,-999.0,81,-99.99,,,-99.99,,2013-06-25 01:36:00,
2013-06-24 22:05:00,74.0,68.0,30.12,SSW,206,0.0,-999.0,82,-99.99,,,-99.99,,2013-06-25 02:05:00,
2013-06-24 22:25:00,73.0,68.0,30.12,SSW,206,0.0,-999.0,83,-99.99,,,-99.99,,2013-06-25 02:25:00,
2013-06-24 22:37:00,73.0,68.0,30.12,SSW,206,0.0,-999.0,85,-99.99,,,-99.99,,2013-06-25 02:37:00,
2013-06-24 23:07:00,71.0,67.0,30.12,SSW,206,0.0,-999.0,87,-99.99,,,-99.99,,2013-06-25 03:07:00,
2013-06-24 23:32:00,71.0,67.0,30.12,SSW,206,0.0,-999.0,88,-99.99,,,-99.99,,2013-06-25 03:32:00,
2013-06-24 23:44:00,70.0,67.0,30.14,SSW,206,0.0,-999.0,89,-99.99,,,-99.99,,2013-06-25 03:44:00,